TimeEST,TemperatureF,Dew PointF,Humidity,Sea Level PressureIn,VisibilityMPH,Wind Direction,Wind SpeedMPH,Gust SpeedMPH,PrecipitationIn,Events,Conditions,WindDirDegrees,DateUTC
12:53 AM,23.0,7.0,50,30.04,10.0,Calm,Calm,-,N/A,,Clear,0,2014-02-28 05:53:00
1:53 AM,19.9,9.0,62,30.06,10.0,Calm,Calm,-,N/A,,Clear,0,2014-02-28 06:53:00
2:53 AM,19.0,10.0,68,30.07,10.0,North,3.5,-,N/A,,Clear,360,2014-02-28 07:53:00
3:53 AM,18.0,10.0,71,30.06,10.0,Calm,Calm,-,N/A,,Clear,0,2014-02-28 08:53:00
4:53 AM,17.1,10.0,74,30.09,10.0,Calm,Calm,-,N/A,,Clear,0,2014-02-28 09:53:00
5:53 AM,17.1,9.0,71,30.10,10.0,Calm,Calm,-,N/A,,Clear,0,2014-02-28 10:53:00
6:53 AM,18.0,10.0,71,30.12,10.0,Calm,Calm,-,N/A,,Clear,0,2014-02-28 11:53:00
7:53 AM,21.0,12.0,68,30.14,10.0,Calm,Calm,-,N/A,,Clear,0,2014-02-28 12:53:00
8:53 AM,27.0,12.0,53,30.16,10.0,ENE,4.6,-,N/A,,Partly Cloudy,70,2014-02-28 13:53:00
9:53 AM,33.1,10.9,40,30.16,10.0,NE,4.6,-,N/A,,Partly Cloudy,50,2014-02-28 14:53:00
10:53 AM,37.9,10.9,33,30.15,10.0,WNW,4.6,-,N/A,,Partly Cloudy,300,2014-02-28 15:53:00
11:53 AM,44.1,8.1,23,30.14,10.0,Variable,4.6,-,N/A,,Partly Cloudy,0,2014-02-28 16:53:00
12:53 PM,46.0,5.0,19,30.12,10.0,SSE,5.8,-,N/A,,Partly Cloudy,160,2014-02-28 17:53:00
1:53 PM,48.0,5.0,17,30.10,10.0,Calm,Calm,-,N/A,,Scattered Clouds,0,2014-02-28 18:53:00
2:53 PM,48.9,6.1,18,30.08,10.0,Variable,3.5,-,N/A,,Mostly Cloudy,0,2014-02-28 19:53:00
3:53 PM,51.1,7.0,17,30.08,10.0,Calm,Calm,-,N/A,,Mostly Cloudy,0,2014-02-28 20:53:00
4:53 PM,50.0,8.1,18,30.08,10.0,Calm,Calm,-,N/A,,Mostly Cloudy,0,2014-02-28 21:53:00
5:53 PM,48.9,9.0,20,30.08,10.0,Calm,Calm,-,N/A,,Mostly Cloudy,0,2014-02-28 22:53:00
6:53 PM,43.0,12.9,30,30.08,10.0,Calm,Calm,-,N/A,,Mostly Cloudy,0,2014-02-28 23:53:00
7:53 PM,44.1,9.0,24,30.08,10.0,ESE,6.9,-,N/A,,Scattered Clouds,120,2014-03-01 00:53:00
8:53 PM,41.0,9.0,27,30.10,10.0,ESE,5.8,-,N/A,,Scattered Clouds,120,2014-03-01 01:53:00
9:53 PM,41.0,9.0,27,30.12,10.0,SE,5.8,-,N/A,,Scattered Clouds,130,2014-03-01 02:53:00
10:53 PM,41.0,10.0,28,30.14,10.0,SE,5.8,-,N/A,,Mostly Cloudy,140,2014-03-01 03:53:00
11:53 PM,39.9,10.0,29,30.14,10.0,SE,3.5,-,N/A,,Overcast,140,2014-03-01 04:53:00